星链-35226 (STARLINK-35226)

导读 | 豆包AI

STARLINK-35226是美国SpaceX星链互联网卫星星座的成员,于2025年9月5日由美国发射升空,属于星链项目低轨互联网组网部署批次。作为近地轨道通信卫星,它承担着为全球提供高速宽带互联网接入服务的任务,延续了星链星座批量部署的节奏,进一步扩充了美国低轨卫星通信网络的规模与覆盖能力。

基本信息
目录编号:
65492
目录名称:
STARLINK-35226
国际标识:
2025-198A
轨道中心:
EARTH
卫星名称:
星链-35226
卫星全名:
星链-35226 (STARLINK-35226)
卫星状态:
在轨 (已飞行236 天)
发射日期:
2025-09-05 UTC
国别 :
美国 (US)
星等 :
--
轨道信息
数据来源 国际轨道数据
星历时间: 2026-04-29T07:28:54+0800
7小时前
查看轨道信息
半长轴: 6853.341km
偏心率: 0.0001259
轨道倾角: 53.160°
近地点辐角 81.684°
升交点赤经 37.115°
平近点角 278.431°
近地点: 474.341km
远地点: 476.067km
周期: 94.105分钟
每日圈数: 15.302039
详细信息
固有亮度:
5
最大亮度:
2.5
卫星平台:
Starlink V1.0
覆盖范围:
全球
运营商:
太空探索技术公司
运营商所在国:
美国
制造商(研发单位):
太空探索技术公司
制造商所在国:
美国
使用方式:
暂无
卫星简介
Starlink 计划是 SpaceX 推出的全球卫星互联网项目,通过发射低轨道卫星,为全球尤其是偏远地区提供高速、低延迟的互联网服务。自 2019 年起,Starlink 已部署数千颗卫星,旨在缩小全球数字鸿沟,推动互联网普及。该项目还为军事、航空等行业提供通信支持,带来广泛经济效益。
2D轨道图
3D轨道图
轨道高度分析图
轨道倾角分析图
轨道综合分析图
查看轨道综合分析图